[[[{"header":{"parameterUnit":"kt","parameterCategory":2,"dx":1,"dy":1,"la1":30.253999710083008,"la2":30.299108505249023,"lo1":-89.0895004272461,"lo2":-89.04439544677734,"nx":28,"ny":28,"refTime":"2022-09-20T21:00:00:Z","depth":0,"parameterNumber":1,"parameterNumberName":"U-component_of_WINDS"},"data":[1.1956,1.193,1.1926,1.1895,1.1886,1.1864,1.1855,1.1843,1.1832,1.1805,1.1789,1.1782,1.177,1.1749,1.1731,1.1728,1.1721,1.1715,1.1713,1.1745,1.1749,1.1753,1.1759,1.1713,1.1713,1.168,1.168,1.168,1.1981,1.1973,1.1955,1.1935,1.192,1.1924,1.1909,1.1896,1.1876,1.1862,1.1845,1.1821,1.1801,1.179,1.177,1.1758,1.1758,1.1753,1.1753,1.1751,1.1785,1.1792,1.1753,1.1753,1.1753,1.1753,1.1753,1.1753,1.2026,1.2011,1.1997,1.1977,1.1966,1.1953,1.1937,1.193,1.1912,1.1891,1.1889,1.1866,1.1852,1.1825,1.1815,1.1797,1.1802,1.1794,1.1792,1.1791,1.179,1.1839,1.1793,1.1793,1.1793,1.1793,1.1793,0,1.2058,1.2057,1.2039,1.2021,1.2006,1.1991,1.1977,1.1967,1.1961,1.1946,1.1925,1.1911,1.1885,1.1864,1.1844,1.1835,1.1837,1.1837,1.1831,1.1832,1.1835,1.1834,1.189,1.1838,1.1838,1.1838,1.1839,1.1839,1.2104,1.2086,1.2069,1.2057,1.2048,1.2029,1.2017,1.2013,1.2,1.1981,1.1967,1.1946,1.1929,1.1894,1.1884,1.1864,1.1865,1.1846,1.1862,1.1864,1.1865,1.1866,1.1865,1.1843,1.1842,1.1842,1.1841,0,1.213,1.2124,1.2094,1.208,1.2075,1.2056,1.2043,1.2027,1.2021,1.1997,1.1992,1.1982,1.196,1.1953,1.1927,1.1924,1.1892,1.1894,1.1898,1.1898,1.188,1.1882,1.1823,1.1815,1.1863,1.1862,1.1862,0,1.2166,1.2142,1.2135,1.2118,1.2091,1.2088,1.2061,1.2054,1.2041,1.2022,1.2024,1.2006,1.2,1.1982,1.1977,1.195,1.1945,1.1941,1.194,1.1941,1.1941,1.1933,1.1935,1.1938,1.1938,1.1939,1.1939,0,1.2208,1.2175,1.2148,1.2139,1.2121,1.2108,1.2099,1.2084,1.2072,1.2055,1.2047,1.2026,1.2015,1.1999,1.1994,1.2005,1.196,1.1975,1.1956,1.1957,1.1946,1.1947,1.1897,1.1939,1.1939,1.194,1.194,0,1.2236,1.222,1.218,1.2165,1.2156,1.2138,1.2118,1.2101,1.2085,1.2081,1.2067,1.2067,1.2043,1.2058,1.2024,1.204,1.2029,1.2023,1.2021,1.2018,1.2035,1.2008,1.1961,1.1956,1.2017,1.2017,1.2018,0,1.2286,1.2244,1.2241,1.2204,1.2184,1.2187,1.2167,1.2153,1.2146,1.2128,1.212,1.2098,1.2108,1.21,1.2084,1.2075,1.2054,1.2078,1.2051,1.205,1.2055,1.2012,1.2007,1.1972,1.2026,1.2025,1.2024,0,1.2323,1.23,1.2294,1.2284,1.2265,1.2248,1.2224,1.2203,1.2191,1.2174,1.2154,1.2124,1.213,1.2117,1.2114,1.2098,1.2068,1.2106,1.2106,1.21,1.2029,1.2024,1.2019,1.207,1.2069,1.2068,1.2031,0,1.2368,1.2346,1.2328,1.2306,1.2292,1.2268,1.2261,1.2247,1.2246,1.2239,1.2209,1.2195,1.2171,1.2163,1.2161,1.2126,1.2131,1.2137,1.2151,1.2122,1.211,1.2105,1.217,1.2171,1.2171,1.2171,0,0,1.2416,1.2385,1.2382,1.2359,1.2347,1.2351,1.2325,1.2314,1.2289,1.2281,1.2288,1.2243,1.223,1.2194,1.2185,1.2175,1.2168,1.2178,1.2136,1.2132,1.2128,1.2115,1.211,1.2172,1.2172,1.2172,1.2172,0,1.2431,1.242,1.2396,1.2384,1.2366,1.236,1.2354,1.2336,1.233,1.2301,1.2303,1.2284,1.2247,1.2234,1.2222,1.2183,1.2185,1.2176,1.2158,1.2139,1.2135,1.2131,1.2117,1.2112,1.2173,1.2172,1.2172,0,1.2467,1.2455,1.2442,1.2415,1.2403,1.2381,1.2394,1.2371,1.2355,1.2359,1.2329,1.2319,1.23,1.2267,1.2251,1.2258,1.2201,1.2217,1.2215,1.2213,1.2194,1.2189,1.2185,1.2245,1.2245,1.2245,0,0,1.2481,1.2461,1.2446,1.2417,1.241,1.24,1.2388,1.2386,1.2369,1.2363,1.235,1.2334,1.2312,1.2298,1.2278,1.2242,1.2237,1.2226,1.2223,1.222,1.2216,1.2197,1.2192,1.2246,1.2246,1.2246,0,0,1.2487,1.2469,1.2472,1.2438,1.2422,1.2405,1.2388,1.239,1.2371,1.2372,1.2367,1.2362,1.2331,1.2321,1.2336,1.2282,1.2296,1.2292,1.229,1.2285,1.2282,1.2285,1.2346,0,0,0,0,0,1.2499,1.2472,1.2474,1.2467,1.2432,1.2404,1.2399,1.2395,1.2405,1.2391,1.2381,1.2385,1.2328,1.2342,1.2335,1.2317,1.226,1.2258,1.2256,1.2244,1.224,1.2236,0,0,0,0,0,0,1.2496,1.2488,1.2475,1.2456,1.2448,1.2405,1.2421,1.2419,1.2406,1.2407,1.2387,1.2384,1.2379,1.2345,1.2339,1.2322,1.2349,1.2259,1.2257,1.2255,1.2243,1.2239,1.2236,0,0,0,0,0,1.2494,1.2487,1.2432,1.2457,1.245,1.2437,1.2422,1.242,1.241,1.2395,1.2392,1.2408,1.2379,1.2373,1.2341,1.2325,1.2353,1.2351,1.2258,1.2256,1.2255,1.2241,0,0,0,0,0,0,1.2492,1.2485,1.243,1.2428,1.2467,1.2439,1.2435,1.2422,1.2398,1.2396,1.2416,1.2417,1.2378,1.2374,1.2369,1.2327,1.2357,1.2354,1.2353,1.2257,1.2255,1.2254,0,0,0,0,0,0,1.2489,1.2483,1.2429,1.2442,1.2441,1.2442,1.2438,1.241,1.2398,1.2421,1.2421,1.2417,1.2384,1.2374,1.2371,1.2327,1.2359,1.2357,1.2355,1.2354,1.2256,1.2255,0,0,0,0,0,0,1.2486,1.2482,1.2442,1.2442,1.2441,1.2414,1.2417,1.238,1.241,1.2422,1.2413,1.2414,1.2384,1.2381,1.2372,1.233,1.2328,1.2359,1.2358,1.2356,1.2356,0,0,0,0,0,0,0,1.2484,1.2518,1.2444,1.2441,1.2441,1.2406,1.2405,1.2405,1.241,1.2411,1.2412,1.2413,1.2372,1.237,1.2367,1.2332,0,0,1.2359,1.2358,0,0,0,0,0,0,0,0,1.2519,1.2518,1.2444,1.2443,1.2443,1.2406,1.2405,1.2405,1.2411,1.2411,1.2412,1.2413,1.2372,1.237,1.2368,0,0,0,0,0,0,0,0,0,0,0,0,0,0,0,1.2444,1.2443,0,1.2406,1.2405,1.2405,1.2411,1.2411,1.2412,1.2413,1.2371,1.2369,1.2368,0,0,0,0,0,0,0,0,0,0,0,0,0,0,0,0,0,0,0,0,0,0,0,0,0,0,0,0,0,0,0,0,0,0,0,0,0,0,0,0,0,0,0,0,0,0,0,0,0,0,0,0,0,0,0,0,0,0,0,0,0,0,0,0,0,0,0,0,0]}],[{"header":{"parameterUnit":"kt","parameterCategory":2,"dx":1,"dy":1,"la1":30.253999710083008,"la2":30.299108505249023,"lo1":-89.0895004272461,"lo2":-89.04439544677734,"nx":28,"ny":28,"refTime":"2022-09-20T21:00:00:Z","depth":0,"parameterNumber":2,"parameterNumberName":"V-component_of_WINDS"},"data":[-4.6899,-4.7026,-4.7053,-4.7209,-4.726,-4.7371,-4.7419,-4.7484,-4.7542,-4.7677,-4.7759,-4.7797,-4.7865,-4.7968,-4.8057,-4.8072,-4.8108,-4.8133,-4.8146,-4.8009,-4.7991,-4.7974,-4.7947,-4.8141,-4.8141,-4.8286,-4.8287,-4.8288,-4.6797,-4.6849,-4.694,-4.7046,-4.7123,-4.7115,-4.7198,-4.7263,-4.7362,-4.7435,-4.7516,-4.7636,-4.7734,-4.7793,-4.7891,-4.795,-4.7951,-4.7974,-4.797,-4.7981,-4.7835,-4.7805,-4.7972,-4.7972,-4.7972,-4.7972,-4.7972,-4.7972,-4.6619,-4.6694,-4.6774,-4.6872,-4.6932,-4.7003,-4.7078,-4.7125,-4.7212,-4.7319,-4.7332,-4.7444,-4.752,-4.765,-4.77,-4.7787,-4.7765,-4.7799,-4.7807,-4.7815,-4.7821,-4.7611,-4.7804,-4.7804,-4.7804,-4.7803,-4.7803,0,-4.6497,-4.6515,-4.6603,-4.67,-4.6773,-4.685,-4.6925,-4.6972,-4.7016,-4.7087,-4.7191,-4.7255,-4.7381,-4.7481,-4.7577,-4.7622,-4.7619,-4.7621,-4.7645,-4.764,-4.7625,-4.7635,-4.7396,-4.7615,-4.7614,-4.7613,-4.7612,-4.7611,-4.632,-4.6403,-4.6499,-4.6558,-4.6605,-4.6699,-4.6759,-4.6792,-4.6855,-4.6951,-4.7014,-4.7115,-4.7197,-4.7358,-4.7409,-4.7502,-4.7502,-4.7583,-4.7516,-4.7508,-4.7504,-4.7499,-4.7508,-4.7595,-4.7597,-4.7599,-4.76,0,-4.6218,-4.6261,-4.6399,-4.6485,-4.6509,-4.6594,-4.6667,-4.6742,-4.6778,-4.6886,-4.6913,-4.6969,-4.707,-4.7108,-4.723,-4.7247,-4.7387,-4.7383,-4.7361,-4.7363,-4.744,-4.7433,-4.7682,-4.7717,-4.7516,-4.7518,-4.7519,0,-4.6084,-4.6192,-4.625,-4.6327,-4.6448,-4.6478,-4.6596,-4.6639,-4.6705,-4.679,-4.6794,-4.6873,-4.6909,-4.6994,-4.7019,-4.714,-4.7162,-4.7183,-4.7188,-4.7183,-4.7181,-4.7216,-4.7207,-4.7196,-4.7194,-4.7193,-4.7192,0,-4.592,-4.6077,-4.6202,-4.6245,-4.6347,-4.6405,-4.645,-4.6524,-4.6583,-4.6665,-4.6703,-4.6796,-4.6847,-4.6918,-4.6949,-4.6902,-4.7098,-4.7039,-4.7118,-4.7118,-4.7159,-4.7156,-4.7368,-4.7191,-4.719,-4.719,-4.7189,0,-4.5819,-4.5903,-4.6078,-4.6163,-4.6203,-4.6285,-4.6379,-4.6458,-4.6536,-4.6557,-4.6622,-4.6628,-4.6737,-4.6676,-4.6826,-4.6756,-4.6806,-4.6835,-4.6841,-4.6853,-4.6785,-4.69,-4.7097,-4.712,-4.6865,-4.6862,-4.686,0,-4.562,-4.5808,-4.5835,-4.6001,-4.6093,-4.6092,-4.6183,-4.6252,-4.6288,-4.637,-4.641,-4.6503,-4.6466,-4.6501,-4.657,-4.6613,-4.6704,-4.6602,-4.672,-4.6724,-4.6701,-4.6882,-4.6903,-4.705,-4.6825,-4.6829,-4.6832,0,-4.5471,-4.5594,-4.5622,-4.5672,-4.5768,-4.5844,-4.5949,-4.6049,-4.6103,-4.6178,-4.6267,-4.6398,-4.6376,-4.6433,-4.6447,-4.6517,-4.6643,-4.6483,-4.6486,-4.6512,-4.6811,-4.683,-4.6855,-4.6638,-4.6642,-4.6645,-4.6804,0,-4.5309,-4.5408,-4.5484,-4.5593,-4.5658,-4.5763,-4.5805,-4.5867,-4.5876,-4.5911,-4.6041,-4.6106,-4.6206,-4.6243,-4.6251,-4.6399,-4.638,-4.6355,-4.6299,-4.6417,-4.6471,-4.6493,-4.6216,-4.6214,-4.6213,-4.6212,0,0,-4.5108,-4.5251,-4.5277,-4.5381,-4.5437,-4.5434,-4.5542,-4.5596,-4.5706,-4.5745,-4.5714,-4.5909,-4.5962,-4.6116,-4.6156,-4.6196,-4.6226,-4.6182,-4.636,-4.6377,-4.6392,-4.6448,-4.647,-4.621,-4.621,-4.6209,-4.6209,0,-4.5058,-4.5115,-4.5222,-4.528,-4.5367,-4.5399,-4.5425,-4.5509,-4.5537,-4.5664,-4.5658,-4.5741,-4.5894,-4.5953,-4.6002,-4.6165,-4.6155,-4.6192,-4.6267,-4.6347,-4.6365,-4.6381,-4.644,-4.646,-4.6206,-4.6206,-4.6206,0,-4.4919,-4.4982,-4.5038,-4.5167,-4.5223,-4.5317,-4.5269,-4.537,-4.544,-4.5428,-4.5555,-4.5596,-4.5676,-4.5816,-4.588,-4.5853,-4.6089,-4.6021,-4.603,-4.6037,-4.6116,-4.6138,-4.6157,-4.5905,-4.5904,-4.5902,0,0,-4.487,-4.4962,-4.5039,-4.5159,-4.5195,-4.5244,-4.5298,-4.5311,-4.5385,-4.5414,-4.5466,-4.5537,-4.5627,-4.5685,-4.5771,-4.5918,-4.5937,-4.5982,-4.5997,-4.6008,-4.6022,-4.6104,-4.6125,-4.5898,-4.5898,-4.5898,0,0,-4.4846,-4.494,-4.4936,-4.508,-4.5151,-4.5234,-4.5305,-4.5301,-4.5383,-4.5375,-4.5401,-4.5421,-4.5552,-4.5592,-4.5527,-4.5752,-4.5695,-4.5712,-4.5721,-4.5739,-4.5753,-4.5741,-4.5485,0,0,0,0,0,-4.4816,-4.4929,-4.4924,-4.4954,-4.5115,-4.5237,-4.5257,-4.5282,-4.5243,-4.5299,-4.5342,-4.5328,-4.5562,-4.5505,-4.5534,-4.5607,-4.5839,-4.585,-4.5859,-4.5906,-4.5925,-4.5941,0,0,0,0,0,0,-4.4828,-4.4865,-4.4921,-4.5008,-4.5044,-4.5233,-4.5171,-4.5181,-4.5237,-4.5233,-4.532,-4.5331,-4.5353,-4.5492,-4.5518,-4.5586,-4.5477,-4.5843,-4.5852,-4.586,-4.5912,-4.5928,-4.5941,0,0,0,0,0,-4.4838,-4.4868,-4.512,-4.5006,-4.5038,-4.5098,-4.5167,-4.5175,-4.5219,-4.5286,-4.5296,-4.5233,-4.5355,-4.5378,-4.5507,-4.5574,-4.5459,-4.5468,-4.5849,-4.5856,-4.5862,-4.592,0,0,0,0,0,0,-4.4845,-4.4875,-4.5127,-4.5137,-4.4965,-4.5088,-4.5108,-4.5169,-4.5268,-4.5279,-4.5198,-4.5194,-4.5357,-4.5375,-4.5393,-4.5568,-4.5444,-4.5454,-4.546,-4.5854,-4.586,-4.5865,0,0,0,0,0,0,-4.4859,-4.4884,-4.5132,-4.5079,-4.5084,-4.5079,-4.5097,-4.521,-4.5269,-4.5175,-4.5175,-4.5195,-4.5329,-4.5373,-4.5387,-4.5562,-4.5433,-4.5443,-4.5449,-4.5453,-4.5859,-4.5863,0,0,0,0,0,0,-4.487,-4.4892,-4.5076,-4.508,-4.5084,-4.5204,-4.5179,-4.5342,-4.5225,-4.5171,-4.5215,-4.5211,-4.5328,-4.5342,-4.5383,-4.5552,-4.5559,-4.5434,-4.544,-4.5444,-4.5447,0,0,0,0,0,0,0,-4.4879,-4.473,-4.5064,-4.5081,-4.5084,-4.5235,-4.5238,-4.524,-4.5224,-4.522,-4.5216,-4.5213,-4.538,-4.539,-4.5401,-4.5544,0,0,-4.5433,-4.5437,0,0,0,0,0,0,0,0,-4.4722,-4.4728,-4.5065,-4.5067,-4.5069,-4.5235,-4.5237,-4.524,-4.5224,-4.522,-4.5217,-4.5214,-4.5383,-4.5391,-4.54,0,0,0,0,0,0,0,0,0,0,0,0,0,0,0,-4.5065,-4.5067,0,-4.5235,-4.5237,-4.5239,-4.5223,-4.522,-4.5218,-4.5215,-4.5385,-4.5392,-4.5399,0,0,0,0,0,0,0,0,0,0,0,0,0,0,0,0,0,0,0,0,0,0,0,0,0,0,0,0,0,0,0,0,0,0,0,0,0,0,0,0,0,0,0,0,0,0,0,0,0,0,0,0,0,0,0,0,0,0,0,0,0,0,0,0,0,0,0,0,0]}]]]